Regional Weather Roundup
Issued by NWS

Home | Current Version | Previous Version | Text Only | Print | Product List | Glossary Off
Versions: 1 2 3 4 5 6 7 8 9 10 11 12 13 14 15 16 17 18 19 20 21 22 23 24 25 26 27 28 29 30 31 32 33 34 35 36 37 38 39 40 41 42 43 44 45 46 47 48 49 50

000
ASUS43 KDMX 250908
RWRIA

WEATHER ROUNDUP FOR IOWA
NATIONAL WEATHER SERVICE DES MOINES IA
400 AM CDT MON JUL 25 2016

NOTE: "FAIR" INDICATES FEW OR NO CLOUDS BELOW 12,000 FEET WITH NO
SIGNIFICANT WEATHER AND/OR OBSTRUCTIONS TO VISIBILITY.

* - THESE STATIONS ARE NOT NWS STATIONS...THUS NOT UNDER NWS
QUALITY CONTROL.  THEY ALSO DO NOT REPORT WEATHER SUCH
AS PRECIPITATION OR FOG.

IAZ001>003-012>014-020>022-031>034-043>046-251000-
   NORTHWEST IOWA

CITY           SKY/WX    TMP DP  RH WIND       PRES   REMARKS
CARROLL *      CLEAR     63  63 100 CALM      30.07R
CHEROKEE *     CLEAR     63  62  96 CALM      30.07S
LE MARS *      CLEAR     61  61 100 CALM      30.07F
SHELDON *      CLEAR     59  59 100 N5        30.06F
SIOUX CITY     CLEAR     64  62  93 NW3       30.06S
SPENCER        CLEAR     59  58  96 W6        30.07F
STORM LAKE *   CLEAR     64  61  88 NW6       30.08S
$$

IAZ055>058-069>071-079>083-090>094-251000-
   SOUTHWEST IOWA

CITY           SKY/WX    TMP DP  RH WIND       PRES   REMARKS
ATLANTIC *     CLEAR     63  63 100 N5        30.06S
CLARINDA *     FOG       64  64 100 MISG      30.06F VSB 1/2
COUNCIL BLFS *   N/A     68  63  83 NE10G17   30.06R
CRESTON *      CLEAR     66  64  94 NE9       30.07S
HARLAN  *      CLEAR     61  61 100 CALM      30.10R
LAMONI         PTCLDY    67  64  90 NE7       30.04S
RED OAK *      CLEAR     66  64  94 CALM      30.05S
SHENANDOAH *   CLEAR     66  66 100 CALM      30.05S
$$

IAZ047>049-059>061-072>074-084-251000-
   CENTRAL IOWA

CITY           SKY/WX    TMP DP  RH WIND       PRES   REMARKS
AMES           CLEAR     67  66  97 N6        30.06R
ANKENY *         N/A    N/A N/A N/A MISG        N/A
BOONE *        CLEAR     66  63  88 NW6       30.06R
CHARITON *       N/A    N/A N/A N/A MISG        N/A
DES MOINES     PTCLDY    71  64  78 N5        30.04R
GRINNELL*      CLEAR     65  63  91 N3        30.06R
KNOXVILLE *    CLEAR     70  63  78 N6        30.03S
MARSHALLTOWN   CLEAR     66  65  96 N7        30.04S
NEWTON *       CLEAR     66  64  94 N8        30.04S
PELLA *        CLEAR     65  63  91 N3        30.05S
PERRY *          N/A     66  65  96 N3        30.06S
$$

IAZ004>006-015-016-023>025-035-036-251000-
   NORTH CENTRAL IOWA

CITY           SKY/WX    TMP DP  RH WIND       PRES   REMARKS
ALGONA *       CLEAR     64  63  94 NW3       30.07S
ESTHERVILLE    CLEAR     61  60  97 W6        30.07R
FORT DODGE *   CLEAR     64  61  88 CALM      30.07S
MASON CITY     CLEAR     62  61  96 NW6       30.07S
FOREST CITY *  FOG       59  59 100 CALM      30.06S VSB 1/2
IOWA FALLS *     N/A     64  62  93 W3        30.07S
$$

IAZ007>011-017>019-026>030-037>042-050>054-066-251000-
   NORTHEAST IOWA

CITY           SKY/WX    TMP DP  RH WIND       PRES   REMARKS
CEDAR RAPIDS   CLOUDY    67  67 100 CALM      30.02R
CHARLES CITY * CLEAR     63  63 100 CALM      30.06R
CLINTON *      CLOUDY    68  67  96 CALM      30.01R
DECORAH *      CLEAR     64  64 100 W3        30.03R
DUBUQUE        MOCLDY    70  65  84 N8        30.02S
MONTICELLO *   CLOUDY    68  66  94 CALM      30.02R
OELWEIN *      CLEAR     63  63 100 W5        30.05S
WATERLOO       CLEAR     65  63  93 CALM      30.03S
$$

IAZ064-065-067-068-078-251000-
   EAST CENTRAL IOWA

CITY           SKY/WX    TMP DP  RH WIND       PRES   REMARKS
DAVENPORT      CLOUDY    68  66  93 CALM      30.02R
IOWA CITY      CLOUDY    72  65  78 N7        30.03R
MT. PLEASANT *   N/A     73  71  95 N5        30.02S
MUSCATINE *    CLOUDY    72  66  83 CALM      30.03R
QUAD CITIES    CLOUDY    73  66  78 CALM      30.00R
$$

IAZ062-063-075>077-085>089-095>099-251000-
   SOUTHEAST IOWA

CITY           SKY/WX    TMP DP  RH WIND       PRES   REMARKS
BURLINGTON     CLOUDY    72  68  87 N9        30.00F
FAIRFIELD *    CLOUDY    70  64  83 NE5       30.04R
KEOKUK *       CLOUDY    73  70  88 NW6       30.02R
OSKALOOSA *      N/A     65  63  92 N8        30.04R
CENTERVILLE *    N/A     70  64  83 NE6       30.06R
OTTUMWA        CLOUDY    67  62  84 NE3       30.03R
WASHINGTON *   CLOUDY    68  66  94 CALM      30.04R
$$

ABBREVIATIONS USED IN REMARKS
   TC - TEMPERATURES IN CELSIUS
  WCI - WIND CHILL INDEX
   HX - HEAT INDEX
  VSB - VISIBILITY
$$





USA.gov is the U.S. government's official web portal to all federal, state and local government web resources and services.